User: anonymous   Login
Location: Unspecified
(0.0000°N, 0.0000°E)
Time: 03:00:56
(UTC+00:00)
Language:

STARLINK-31041 - Orbit

View from above orbital plane
View from above orbital plane
View from above satellite
View from above satellite

Ground track
Ground track

The orbit is defined by the following mean orbital elements,

1 58537U          26145.06484508 +.00000000 +00000-0 -11360-4 0 00000
2 58537  53.1612  67.6388 0000908  92.1937 267.9170 15.34394667    04
Epoch (UTC): 25 May 2026 01:33:22
Eccentricity: 0.0000908
inclination: 53.1612°
perigee height: 462 km
apogee height: 463 km
right ascension of ascending node: 67.6388°
argument of perigee: 92.1937°
revolutions per day: 15.34394667
mean anomaly at epoch: 267.9170°

The dashed part of the orbit path shows where the satellite is in the earth's shadow,  

DLR